Location: Unspecified
(64.9000°N, 0.0000°E)
Time: 16:56:00
(UTC+00:00)

A-11 Canister half - Pass Details

Date: 25 June 2019
Orbit: 1526 x 1683 km, 47.3° (Epoch: 17 July)

Event Time Altitude Azimuth Distance (km) Brightness Sun altitude
Rises 03:48:13 0° 202° (SSW) 4,739 11.0 8.3°
Reaches altitude 10° 03:52:36 10° 185° (S) 3,733 10.7 8.7°
Maximum altitude 03:58:11 18° 148° (SSE) 3,145 10.7 9.1°
Drops below altitude 10° 04:03:42 10° 110° (ESE) 3,700 11.6 9.6°
Sets 04:08:00 0° 93° (E) 4,681 12.5 10.0°
